This is the latest recevied weather packets stored in our database for station/object CA3VLN-10. If no packets are shown the sender has not sent any weather packets the latest 10 day(s).
| Time | Temp. | Humidity | Pressure | Rain* | Wind** | Luminosity | Snow |
|---|---|---|---|---|---|---|---|
| 1787867960 | 22.22° C | 40% | 1002.3 hPa | - | - | - | - |
| 1787867059 | 22.22° C | 39% | 1001.9 hPa | - | - | - | - |
| 1787866159 | 22.78° C | 39% | 1001.8 hPa | - | - | - | - |
| 1787865259 | 23.33° C | 37% | 1001.5 hPa | - | - | - | - |
| 1787864359 | 23.89° C | 36% | 1001.3 hPa | - | - | - | - |
| 1787863459 | 24.44° C | 34% | 1001.3 hPa | - | - | - | - |
| 1787862559 | 24.44° C | 35% | 1001.3 hPa | - | - | - | - |
| 1787861659 | 24.44° C | 35% | 1001.2 hPa | - | - | - | - |
| 1787860759 | 25° C | 35% | 1001.2 hPa | - | - | - | - |
| 1787859859 | 25° C | 33% | 1001.2 hPa | - | - | - | - |
| 1787859002 | 25° C | 35% | 1001.2 hPa | - | - | - | - |
| 1787858959 | 25.56° C | 33% | 1001.2 hPa | - | - | - | - |
| 1787858059 | 25.56° C | 35% | 1001.3 hPa | - | - | - | - |
| 1787857158 | 25° C | 35% | 1001.2 hPa | - | - | - | - |
| 1787856258 | 24.44° C | 35% | 1001.1 hPa | - | - | - | - |
| 1787855358 | 25° C | 35% | 1001.1 hPa | - | - | - | - |
| 1787854458 | 25° C | 35% | 1001 hPa | - | - | - | - |
| 1787853558 | 25° C | 36% | 1001.2 hPa | - | - | - | - |
| 1787852658 | 25° C | 35% | 1001.1 hPa | - | - | - | - |
| 1787851758 | 25° C | 35% | 1001.2 hPa | - | - | - | - |
| 1787850858 | 25° C | 35% | 1001.4 hPa | - | - | - | - |
| 1787849957 | 25° C | 36% | 1001.7 hPa | - | - | - | - |
| 1787849057 | 24.44° C | 37% | 1001.8 hPa | - | - | - | - |
| 1787848157 | 24.44° C | 37% | 1001.9 hPa | - | - | - | - |
| 1787847265 | 25° C | 36% | 1001.9 hPa | - | - | - | - |
* Rain since midnight (hover to see other rain measurements)
** Current wind speed in m/s (hover to see current wind gust speed)